{"data":{"norad_id":45703,"epoch":"2026-05-24T16:26:34.211616Z","epoch_age_seconds":95642,"freshness":"FRESH","line1":"1 45703U 20035AY  26144.68511819  .00058638  00000+0  44602-3 0  9993","line2":"2 45703  53.0278 301.8327 0003974   0.2323 359.8695 15.71729975332201","mean_motion":15.71729975,"eccentricity":0.0003974,"inclination_deg":53.0278,"raan_deg":301.8327,"arg_perigee_deg":0.2323,"mean_anomaly_deg":359.8695,"bstar":0.00044602,"rev_number":33220,"period_min":91.618790944036,"perigee_km":351.27721443904,"apogee_km":356.62787921085,"semimajor_km":6732.0895468249,"source":"CELESTRAK","updated_at":"2026-05-25T13:38:16.430986Z"}}